Montauk, NY

10:57 AM EDT on July 25, 2017 (GMT -0400)
Montauk

Weather History for KMTP - May, 2014

Change the Weather History Date:

Wednesday, May 14, 2014

  Actual Average (KHTO) Record (KHTO)
Temperature  
Mean Temperature 54 °F -  
Max Temperature 60 °F 65 °F 82 °F (1991)
Min Temperature 48 °F 46 °F 31 °F (1987)
Degree Days  
Heating Degree Days 11    
Growing Degree Days 4 (Base 50)    
Moisture  
Dew Point 47 °F    
Average Humidity 82    
Maximum Humidity 93    
Minimum Humidity 70    
Precipitation  
Precipitation 0.00 in - - ()
Sea Level Pressure  
Sea Level Pressure 30.32 in    
Wind  
Wind Speed 5 mph (ENE)    
Max Wind Speed 8 mph    
Max Gust Speed -    
Averages and records for this station are not official NWS values.
T = Trace of Precipitation, MM = Missing Value Source: NWS Daily Summary

Daily Weather History Graph

Daily Weather History Graph

Search for Another Location

Airport or City:

Trip Planner

Search our weather history database for the weather conditions in past years. The results will help you decide how hot, cold, wet, or windy it might be!

Date:

Astronomy

May. 14, 2014 Rise Set
Actual Time 5:30 AM EDT 7:57 PM EDT
Civil Twilight 4:59 AM EDT 8:29 PM EDT
Nautical Twilight 4:20 AM EDT 9:08 PM EDT
Astronomical Twilight 3:37 AM EDT 9:51 PM EDT
Moon 8:00 PM EDT (5/14) 5:27 AM EDT (5/14)
Length of Visible Light 15h 29m
Length of Day
14h 27m
Full, 100% of the Moon is Illuminated
May 14
Full
May 14
Full
May 21
Last Quarter
May 28
New
Jun 5
First Quarter

Hourly Weather History & Observations

Time (EDT) Temp. Dew Point Humidity Pressure Visibility Wind Dir Wind Speed Gust Speed Precip Events Conditions
12:54 AM 48.0 °F 44.1 °F 86% 30.31 in - East 4.6 mph - N/A   Unknown
1:54 AM 48.0 °F 44.1 °F 86% 30.31 in - East 3.5 mph - N/A   Unknown
2:54 AM 48.0 °F 44.1 °F 86% 30.31 in - ENE 3.5 mph - N/A   Unknown
3:54 AM 48.0 °F 44.1 °F 86% 30.30 in - ENE 5.8 mph - N/A   Unknown
4:54 AM 48.0 °F 44.1 °F 86% 30.31 in - Variable 5.8 mph - N/A   Unknown
5:54 AM 48.0 °F 45.0 °F 89% 30.31 in - ENE 4.6 mph - N/A   Unknown
6:54 AM 48.9 °F 45.0 °F 86% 30.34 in - NE 5.8 mph - N/A   Unknown
7:54 AM 50.0 °F 46.0 °F 86% 30.34 in - ENE 5.8 mph - N/A   Unknown
8:54 AM 52.0 °F 45.0 °F 77% 30.35 in - Variable 6.9 mph - N/A   Unknown
9:54 AM 54.0 °F 46.9 °F 77% 30.33 in - Variable 5.8 mph - N/A   Unknown
11:54 AM 55.9 °F 46.9 °F 72% 30.34 in - NE 8.1 mph - N/A   Unknown
12:54 PM 57.9 °F 48.0 °F 70% 30.33 in - ENE 6.9 mph - N/A   Unknown
1:54 PM 54.0 °F 46.0 °F 75% 30.33 in - NE 8.1 mph - N/A   Unknown
2:54 PM 55.9 °F 46.9 °F 72% 30.33 in - Variable 5.8 mph - N/A   Unknown
3:54 PM 57.9 °F 48.9 °F 72% 30.31 in - Variable 3.5 mph - N/A   Unknown
4:54 PM 60.1 °F 52.0 °F 75% 30.29 in - Variable 3.5 mph - N/A   Unknown
5:54 PM 55.9 °F 50.0 °F 80% 30.30 in - Variable 4.6 mph - N/A   Unknown
6:54 PM 55.0 °F 48.9 °F 80% 30.30 in - NNE 3.5 mph - N/A   Unknown
7:54 PM 53.1 °F 50.0 °F 89% 30.30 in - NE 3.5 mph - N/A   Unknown
8:54 PM 54.0 °F 51.1 °F 90% 30.30 in - Calm Calm - N/A   Unknown
9:54 PM 53.1 °F 50.0 °F 89% 30.31 in - ENE 5.8 mph - N/A   Unknown
10:54 PM 54.0 °F 51.1 °F 90% 30.31 in - ENE 3.5 mph - N/A   Unknown
11:54 PM 55.0 °F 53.1 °F 93% 30.31 in - Calm Calm - N/A   Unknown